Weather History for KAWO - August, 2012

Change the Weather History Date:

Wednesday, August 8, 2012

  Actual Average Record
Temperature  
Mean Temperature 63 °F -  
Max Temperature 71 °F 74 °F 88 °F (1978)
Min Temperature 55 °F 54 °F 44 °F (1998)
Degree Days  
Heating Degree Days 2    
Growing Degree Days 13 (Base 50)    
Moisture  
Dew Point 55 °F    
Average Humidity 74    
Maximum Humidity 94    
Minimum Humidity 53    
Precipitation  
Precipitation 0.00 in - - ()
Sea Level Pressure  
Sea Level Pressure 30.18 in    
Wind  
Wind Speed 2 mph (South)    
Max Wind Speed 10 mph    
Max Gust Speed -    
Visibility 8 miles    
Events      
Averages and records for this station are not official NWS values.
T = Trace of Precipitation, MM = Missing Value Source: NWS Daily Summary

Daily Weather History Graph

Daily Weather History Graph

Search for Another Location

Airport or City:

Trip Planner

Search our weather history database for the weather conditions in past years. The results will help you decide how hot, cold, wet, or windy it might be!

Date:

Astronomy

Aug. 08, 2012 Rise Set
Actual Time 5:54 AM PDT 8:33 PM PDT
Civil Twilight 5:19 AM PDT 9:08 PM PDT
Nautical Twilight 4:34 AM PDT 9:52 PM PDT
Astronomical Twilight 3:41 AM PDT 10:45 PM PDT
Moon 11:10 PM PDT (8/8) 1:23 PM PDT (8/8)
Length of Visible Light 15h 49m
Length of Day
14h 38m
Waning Gibbous, 59% of the Moon is Illuminated
Aug 8
Waning Gibbous
Aug 9
Last Quarter
Aug 17
New
Aug 24
First Quarter
Aug 31
Full

Hourly Weather History & Observations

Time (PDT) Temp. Dew Point Humidity Pressure Visibility Wind Dir Wind Speed Gust Speed Precip Events Conditions
12:15 AM 59.0 °F 55.4 °F 88% 30.09 in 7.0 mi Calm Calm - N/A   Overcast
12:35 AM 59.0 °F 57.2 °F 94% 30.09 in 7.0 mi Calm Calm - N/A   Overcast
12:55 AM 59.0 °F 57.2 °F 94% 30.09 in 7.0 mi Calm Calm - N/A   Overcast
1:15 AM 59.0 °F 55.4 °F 88% 30.09 in 9.0 mi Calm Calm - N/A   Overcast
1:35 AM 60.8 °F 55.4 °F 82% 30.09 in 10.0 mi Calm Calm - N/A   Overcast
1:55 AM 60.8 °F 55.4 °F 82% 30.09 in 10.0 mi Calm Calm - N/A   Overcast
2:15 AM 60.8 °F 55.4 °F 82% 30.09 in 9.0 mi Calm Calm - N/A   Overcast
2:35 AM 60.8 °F 55.4 °F 82% 30.09 in 9.0 mi Calm Calm - N/A   Overcast
2:55 AM 59.0 °F 55.4 °F 88% 30.10 in 7.0 mi Calm Calm - N/A   Overcast
3:15 AM 60.8 °F 55.4 °F 82% 30.10 in 5.0 mi Calm Calm - N/A   Overcast
3:35 AM 59.0 °F 55.4 °F 88% 30.10 in 5.0 mi Calm Calm - N/A   Overcast
3:55 AM 59.0 °F 55.4 °F 88% 30.11 in 7.0 mi Calm Calm - N/A   Overcast
4:15 AM 60.8 °F 55.4 °F 82% 30.11 in 10.0 mi Calm Calm - N/A   Overcast
4:35 AM 60.8 °F 55.4 °F 82% 30.11 in 7.0 mi Calm Calm - N/A   Overcast
4:55 AM 59.0 °F 57.2 °F 94% 30.12 in 7.0 mi Calm Calm - N/A   Overcast
5:15 AM 60.8 °F 57.2 °F 88% 30.12 in 5.0 mi Calm Calm - N/A   Overcast
5:35 AM 60.8 °F 55.4 °F 82% 30.13 in 3.0 mi SE 5.8 mph - N/A   Overcast
6:15 AM 59.0 °F 55.4 °F 88% 30.13 in 3.0 mi Calm Calm - N/A   Overcast
6:35 AM 60.8 °F 55.4 °F 82% 30.14 in 5.0 mi South 4.6 mph - N/A   Overcast
6:55 AM 60.8 °F 55.4 °F 82% 30.14 in 2.5 mi SSE 9.2 mph - N/A   Overcast
7:15 AM 60.8 °F 55.4 °F 82% 30.14 in 1.8 mi SSE 8.1 mph - N/A   Overcast
7:35 AM 60.8 °F 55.4 °F 82% 30.15 in 2.5 mi SSE 8.1 mph - N/A   Overcast
7:55 AM 60.8 °F 55.4 °F 82% 30.16 in 2.5 mi SSE 8.1 mph - N/A   Overcast
8:15 AM 60.8 °F 55.4 °F 82% 30.16 in 2.5 mi SE 10.4 mph - N/A   Overcast
8:35 AM 60.8 °F 55.4 °F 82% 30.17 in 2.5 mi SSE 8.1 mph - N/A   Overcast
8:55 AM 62.6 °F 55.4 °F 77% 30.17 in 2.0 mi SSE 9.2 mph - N/A   Overcast
9:15 AM 62.6 °F 55.4 °F 77% 30.18 in 2.5 mi SSE 6.9 mph - N/A   Overcast
10:15 AM 64.4 °F 55.4 °F 73% 30.19 in 5.0 mi SE 9.2 mph - N/A   Overcast
10:35 AM 64.4 °F 55.4 °F 73% 30.19 in 5.0 mi SE 8.1 mph - N/A   Overcast
10:55 AM 64.4 °F 55.4 °F 73% 30.20 in 3.0 mi SE 6.9 mph - N/A   Overcast
11:15 AM 64.4 °F 55.4 °F 73% 30.21 in 4.0 mi SE 8.1 mph - N/A   Overcast
11:35 AM 64.4 °F 55.4 °F 73% 30.21 in 3.0 mi SE 3.5 mph - N/A   Overcast
11:55 AM 66.2 °F 55.4 °F 68% 30.21 in 3.0 mi SSE 9.2 mph - N/A   Overcast
12:15 PM 66.2 °F 55.4 °F 68% 30.21 in 3.0 mi Calm Calm - N/A   Overcast
12:35 PM 66.2 °F 55.4 °F 68% 30.21 in 8.0 mi Calm Calm - N/A   Overcast
12:55 PM 66.2 °F 53.6 °F 64% 30.22 in 10.0 mi WSW 4.6 mph - N/A   Overcast
1:15 PM 66.2 °F 53.6 °F 64% 30.22 in 10.0 mi WSW 5.8 mph - N/A   Overcast
1:35 PM 66.2 °F 55.4 °F 68% 30.22 in 10.0 mi WSW 4.6 mph - N/A   Overcast
1:55 PM 66.2 °F 53.6 °F 64% 30.22 in 10.0 mi Calm Calm - N/A   Overcast
2:15 PM 68.0 °F 55.4 °F 64% 30.22 in 10.0 mi Calm Calm - N/A   Overcast
2:35 PM 66.2 °F 55.4 °F 68% 30.22 in 10.0 mi WSW 5.8 mph - N/A   Overcast
2:55 PM 68.0 °F 55.4 °F 64% 30.22 in 10.0 mi West 4.6 mph - N/A   Overcast
3:15 PM 69.8 °F 55.4 °F 60% 30.22 in 10.0 mi Calm Calm - N/A   Overcast
3:35 PM 69.8 °F 53.6 °F 56% 30.22 in 10.0 mi Calm Calm - N/A   Overcast
3:55 PM 69.8 °F 53.6 °F 56% 30.22 in 10.0 mi WSW 8.1 mph - N/A   Mostly Cloudy
4:15 PM 69.8 °F 53.6 °F 56% 30.22 in 10.0 mi SSW 4.6 mph - N/A   Mostly Cloudy
4:35 PM 69.8 °F 53.6 °F 56% 30.22 in 10.0 mi SSW 8.1 mph - N/A   Overcast
4:55 PM 71.6 °F 53.6 °F 53% 30.22 in 10.0 mi West 4.6 mph - N/A   Overcast
5:15 PM 71.6 °F 53.6 °F 53% 30.22 in 10.0 mi SSW 6.9 mph - N/A   Scattered Clouds
5:35 PM 71.6 °F 53.6 °F 53% 30.22 in 10.0 mi SW 8.1 mph - N/A   Clear
5:55 PM 71.6 °F 53.6 °F 53% 30.21 in 10.0 mi SW 8.1 mph - N/A   Scattered Clouds
6:15 PM 69.8 °F 51.8 °F 53% 30.22 in 10.0 mi South 5.8 mph - N/A   Scattered Clouds
6:35 PM 69.8 °F 51.8 °F 53% 30.22 in 10.0 mi WSW 6.9 mph - N/A   Partly Cloudy
6:55 PM 69.8 °F 51.8 °F 53% 30.22 in 10.0 mi SW 3.5 mph - N/A   Partly Cloudy
7:15 PM 69.8 °F 53.6 °F 56% 30.22 in 10.0 mi WSW 3.5 mph - N/A   Mostly Cloudy
7:35 PM 68.0 °F 51.8 °F 56% 30.22 in 10.0 mi Calm Calm - N/A   Mostly Cloudy
7:55 PM 66.2 °F 51.8 °F 60% 30.22 in 10.0 mi Calm Calm - N/A   Mostly Cloudy
8:15 PM 64.4 °F 53.6 °F 68% 30.22 in 10.0 mi Calm Calm - N/A   Partly Cloudy
8:35 PM 64.4 °F 53.6 °F 68% 30.22 in 10.0 mi Calm Calm - N/A   Clear
8:55 PM 62.6 °F 53.6 °F 72% 30.23 in 10.0 mi Calm Calm - N/A   Clear
9:15 PM 60.8 °F 53.6 °F 77% 30.23 in 10.0 mi Calm Calm - N/A   Clear
9:35 PM 60.8 °F 53.6 °F 77% 30.24 in 10.0 mi Calm Calm - N/A   Clear
9:55 PM 60.8 °F 53.6 °F 77% 30.24 in 10.0 mi Calm Calm - N/A   Clear
10:15 PM 60.8 °F 53.6 °F 77% 30.24 in 10.0 mi Calm Calm - N/A   Clear
10:35 PM 57.2 °F 53.6 °F 88% 30.24 in 10.0 mi Calm Calm - N/A   Clear
10:55 PM 57.2 °F 53.6 °F 88% 30.24 in 10.0 mi Calm Calm - N/A   Clear
11:15 PM 57.2 °F 53.6 °F 88% 30.24 in 10.0 mi Calm Calm - N/A   Clear
11:35 PM 55.4 °F 53.6 °F 94% 30.24 in 10.0 mi Calm Calm - N/A   Clear
11:55 PM 55.4 °F 53.6 °F 94% 30.24 in 10.0 mi Calm Calm - N/A   Clear